[[{"header":{"parameterUnit":"m.s-1","parameterCategory":1,"la1":30.2991,"la2":30.254,"lo1":-89.0895,"lo2":-89.0444,"dy":0.0017,"dx":0.0017,"nx":28,"ny":28,"refTime":"2025-12-24T09:00:00:Z","depth":0,"parameterNumber":2,"parameterNumberName":"U-component_of_WINDS"},"data":[0,0,0,0,0,0,0,0,0,0,0,0,0,0,0,0,0,0,0,0,0,0,0,0,0,0,0,0,0,0,0,0,0,0,0,0,0,0,0,0,0,0,0,0,0,0,0,0,0,0,0,0,0,0,0,0,0,0,-1.1851,-1.1851,0,-1.1843,-1.1843,-1.1842,-1.1779,-1.1777,-1.1776,-1.1774,-1.1767,-1.1768,-1.1769,0,0,0,0,0,0,0,0,0,0,0,0,0,-1.1814,-1.1815,-1.1851,-1.1851,-1.1851,-1.1843,-1.1843,-1.1842,-1.1779,-1.1777,-1.1775,-1.1774,-1.1766,-1.1768,-1.1769,0,0,0,0,0,0,0,0,0,0,0,0,0,-1.1821,-1.1816,-1.1851,-1.1819,-1.1815,-1.1843,-1.1843,-1.1842,-1.178,-1.1777,-1.1775,-1.1773,-1.1766,-1.1768,-1.177,-1.1828,0,0,-1.1775,-1.1776,0,0,0,0,0,0,0,0,-1.182,-1.1822,-1.1823,-1.1821,-1.1817,-1.1809,-1.1827,-1.1838,-1.178,-1.1793,-1.1774,-1.1772,-1.1783,-1.1783,-1.1787,-1.1828,-1.1827,-1.1776,-1.1777,-1.1777,-1.1778,0,0,0,0,0,0,0,-1.182,-1.1822,-1.1848,-1.1824,-1.182,-1.1805,-1.1803,-1.1828,-1.1801,-1.1792,-1.1787,-1.1787,-1.1781,-1.1785,-1.1786,-1.1827,-1.1775,-1.1777,-1.1778,-1.1779,-1.1916,-1.1918,0,0,0,0,0,0,-1.1824,-1.1822,-1.1848,-1.1848,-1.1813,-1.1807,-1.1805,-1.1814,-1.1801,-1.1797,-1.1789,-1.1784,-1.1783,-1.1784,-1.1786,-1.1853,-1.1777,-1.1779,-1.178,-1.1913,-1.1916,-1.1919,0,0,0,0,0,0,-1.1823,-1.1827,-1.1848,-1.1834,-1.1835,-1.181,-1.1821,-1.1816,-1.182,-1.1799,-1.1794,-1.1798,-1.1781,-1.1783,-1.1818,-1.1852,-1.178,-1.1782,-1.191,-1.1914,-1.1918,-1.1989,0,0,0,0,0,0,-1.1823,-1.1827,-1.1849,-1.1835,-1.1836,-1.1881,-1.1823,-1.1817,-1.1823,-1.1816,-1.1806,-1.1802,-1.178,-1.1815,-1.182,-1.1854,-1.1783,-1.1907,-1.1912,-1.1916,-1.1984,-1.1995,-1.2005,0,0,0,0,0,-1.1822,-1.1869,-1.185,-1.1854,-1.1863,-1.1883,-1.1884,-1.1856,-1.1826,-1.1848,-1.1834,-1.1803,-1.1848,-1.182,-1.1824,-1.1859,-1.1905,-1.1911,-1.1916,-1.1979,-1.1993,-1.2004,0,0,0,0,0,0,-1.1889,-1.1867,-1.1845,-1.189,-1.1889,-1.1872,-1.1899,-1.1872,-1.1879,-1.1873,-1.1839,-1.1837,-1.1878,-1.1871,-1.184,-1.1915,-1.1871,-1.1878,-1.1917,-1.193,-1.194,-1.1941,-1.1785,0,0,0,0,0,-1.1909,-1.1926,-1.1907,-1.1948,-1.1948,-1.1924,-1.1932,-1.1911,-1.1908,-1.1907,-1.1896,-1.1896,-1.1909,-1.1919,-1.1931,-1.1982,-1.198,-1.2009,-1.2019,-1.2028,-1.2034,-1.2061,-1.2074,-1.1938,-1.1937,-1.1937,0,0,-1.195,-1.194,-1.1954,-1.1961,-1.1958,-1.1977,-1.1924,-1.1947,-1.1961,-1.1911,-1.1943,-1.1935,-1.1932,-1.1976,-1.1994,-1.1972,-1.2071,-1.2035,-1.2042,-1.2044,-1.2068,-1.2081,-1.2093,-1.1941,-1.1941,-1.194,0,0,-1.2036,-1.203,-1.2064,-1.2062,-1.2057,-1.204,-1.2049,-1.2036,-1.2029,-1.206,-1.2023,-1.204,-1.2065,-1.2064,-1.2067,-1.2153,-1.2124,-1.2157,-1.2212,-1.2239,-1.225,-1.2259,-1.229,-1.2302,-1.2164,-1.2164,-1.2164,0,-1.2088,-1.2116,-1.2085,-1.211,-1.2115,-1.207,-1.2104,-1.2104,-1.2103,-1.2108,-1.2082,-1.2113,-1.2107,-1.215,-1.2171,-1.2175,-1.2184,-1.2159,-1.2251,-1.226,-1.2268,-1.2297,-1.2309,-1.2168,-1.2168,-1.2167,-1.2167,0,-1.218,-1.22,-1.2228,-1.2229,-1.2236,-1.2266,-1.2241,-1.2252,-1.2231,-1.2217,-1.225,-1.2242,-1.2251,-1.226,-1.2239,-1.23,-1.2286,-1.2257,-1.2212,-1.2286,-1.2313,-1.2324,-1.2174,-1.2173,-1.2171,-1.217,0,0,-1.2308,-1.2291,-1.2302,-1.2302,-1.2294,-1.2309,-1.2337,-1.2345,-1.2356,-1.2357,-1.238,-1.2402,-1.2375,-1.2378,-1.2357,-1.2381,-1.245,-1.2348,-1.2347,-1.2367,-1.2517,-1.254,-1.2553,-1.243,-1.2432,-1.2434,-1.2517,0,-1.2391,-1.2437,-1.2411,-1.2461,-1.2479,-1.2437,-1.2462,-1.2459,-1.2447,-1.2461,-1.2448,-1.2464,-1.2426,-1.2428,-1.245,-1.2437,-1.2479,-1.243,-1.2452,-1.2453,-1.2454,-1.2567,-1.2591,-1.267,-1.2527,-1.2529,-1.253,0,-1.2493,-1.2499,-1.2551,-1.254,-1.2546,-1.2569,-1.2575,-1.2588,-1.2585,-1.2575,-1.2579,-1.2552,-1.2579,-1.2535,-1.2572,-1.2539,-1.2547,-1.2542,-1.2544,-1.2545,-1.2496,-1.2572,-1.2694,-1.2706,-1.2546,-1.2545,-1.2544,0,-1.2582,-1.2602,-1.2636,-1.2637,-1.2625,-1.2641,-1.2637,-1.2631,-1.2638,-1.2644,-1.2648,-1.2657,-1.2662,-1.267,-1.2646,-1.2616,-1.2687,-1.264,-1.2679,-1.268,-1.2696,-1.2696,-1.2823,-1.2701,-1.2701,-1.27,-1.27,0,-1.2677,-1.2711,-1.2676,-1.2697,-1.2734,-1.2703,-1.274,-1.2731,-1.2727,-1.2746,-1.271,-1.2728,-1.2696,-1.2711,-1.2693,-1.2727,-1.2729,-1.2722,-1.2717,-1.2725,-1.2726,-1.273,-1.2724,-1.2703,-1.2703,-1.2702,-1.2702,0,-1.2782,-1.276,-1.2795,-1.2779,-1.2777,-1.2804,-1.2792,-1.2811,-1.2796,-1.2821,-1.2825,-1.2802,-1.2818,-1.2795,-1.2809,-1.2797,-1.2844,-1.283,-1.2845,-1.2841,-1.2881,-1.2878,-1.3015,-1.3032,-1.2899,-1.2901,-1.2902,0,-1.2845,-1.287,-1.2857,-1.2867,-1.2865,-1.2881,-1.2888,-1.2859,-1.2868,-1.2866,-1.2886,-1.2899,-1.2908,-1.2936,-1.2921,-1.2932,-1.2918,-1.2966,-1.292,-1.2928,-1.2919,-1.2918,-1.2921,-1.2975,-1.2977,-1.2978,-1.2979,0,-1.2958,-1.2946,-1.2957,-1.2965,-1.2974,-1.2979,-1.2981,-1.2991,-1.2961,-1.2972,-1.2988,-1.2996,-1.301,-1.3024,-1.303,-1.3026,-1.2998,-1.2994,-1.3003,-1.3013,-1.302,-1.3017,-1.2871,-1.2991,-1.299,-1.2989,-1.2988,-1.2988,-1.3044,-1.3064,-1.3059,-1.3072,-1.3071,-1.3074,-1.3091,-1.3079,-1.3091,-1.31,-1.3082,-1.3103,-1.31,-1.3106,-1.3105,-1.3121,-1.31,-1.3114,-1.3118,-1.3122,-1.3128,-1.3017,-1.3122,-1.3121,-1.3121,-1.3121,-1.3121,0,-1.3155,-1.315,-1.3163,-1.3167,-1.3178,-1.315,-1.3151,-1.3162,-1.3181,-1.318,-1.3189,-1.3208,-1.3221,-1.3207,-1.3218,-1.3234,-1.3221,-1.3237,-1.3236,-1.3236,-1.3146,-1.3136,-1.3248,-1.3247,-1.3247,-1.3247,-1.3247,-1.3247,-1.3215,-1.3248,-1.3235,-1.3267,-1.3261,-1.3281,-1.3284,-1.3287,-1.3286,-1.3308,-1.3319,-1.3309,-1.3303,-1.3313,-1.3324,-1.332,-1.3326,-1.3347,-1.3338,-1.3254,-1.3242,-1.323,-1.3221,-1.3349,-1.3349,-1.3427,-1.3428,-1.3428]},{"header":{"parameterUnit":"m.s-1","parameterCategory":1,"la1":30.2991,"la2":30.254,"lo1":-89.0895,"lo2":-89.0444,"dy":0.0017,"dx":0.0017,"nx":28,"ny":28,"refTime":"2025-12-24T09:00:00:Z","depth":0,"parameterNumber":3,"parameterNumberName":"V-component_of_WINDS"},"data":[0,0,0,0,0,0,0,0,0,0,0,0,0,0,0,0,0,0,0,0,0,0,0,0,0,0,0,0,0,0,0,0,0,0,0,0,0,0,0,0,0,0,0,0,0,0,0,0,0,0,0,0,0,0,0,0,0,0,-0.4773,-0.4773,0,-0.4784,-0.4784,-0.4784,-0.4773,-0.4773,-0.4773,-0.4772,-0.4784,-0.4784,-0.4785,0,0,0,0,0,0,0,0,0,0,0,0,0,-0.4742,-0.4743,-0.4773,-0.4773,-0.4773,-0.4784,-0.4784,-0.4784,-0.4773,-0.4773,-0.4772,-0.4772,-0.4783,-0.4784,-0.4785,0,0,0,0,0,0,0,0,0,0,0,0,0,-0.4754,-0.4743,-0.4773,-0.4769,-0.4769,-0.4784,-0.4784,-0.4784,-0.4774,-0.4773,-0.4772,-0.4772,-0.4783,-0.4784,-0.4785,-0.4804,0,0,-0.4788,-0.4789,0,0,0,0,0,0,0,0,-0.4754,-0.4756,-0.477,-0.4769,-0.4769,-0.4777,-0.4777,-0.4791,-0.4774,-0.4772,-0.4772,-0.4771,-0.4782,-0.4783,-0.4786,-0.4805,-0.4805,-0.4788,-0.4789,-0.479,-0.479,0,0,0,0,0,0,0,-0.4753,-0.4755,-0.4777,-0.477,-0.477,-0.4767,-0.4768,-0.478,-0.478,-0.4772,-0.4771,-0.4773,-0.4782,-0.4785,-0.4787,-0.4806,-0.4788,-0.4789,-0.479,-0.479,-0.4839,-0.4839,0,0,0,0,0,0,-0.4753,-0.4754,-0.4777,-0.4778,-0.476,-0.4768,-0.4769,-0.4775,-0.478,-0.478,-0.4773,-0.4772,-0.4784,-0.4785,-0.4787,-0.4809,-0.479,-0.4791,-0.4791,-0.4838,-0.4839,-0.484,0,0,0,0,0,0,-0.4752,-0.4755,-0.4776,-0.4766,-0.4768,-0.4769,-0.4776,-0.4775,-0.4779,-0.4781,-0.4781,-0.4777,-0.4783,-0.4785,-0.48,-0.4809,-0.4791,-0.4792,-0.4837,-0.4838,-0.4839,-0.4854,0,0,0,0,0,0,-0.4751,-0.4754,-0.4762,-0.4766,-0.4769,-0.4789,-0.4776,-0.4776,-0.4781,-0.478,-0.4785,-0.4785,-0.4783,-0.4798,-0.4801,-0.481,-0.4793,-0.4837,-0.4838,-0.4839,-0.4852,-0.4855,-0.4857,0,0,0,0,0,-0.475,-0.4766,-0.4763,-0.4765,-0.4778,-0.479,-0.4792,-0.4789,-0.4782,-0.4789,-0.479,-0.4785,-0.4808,-0.48,-0.4803,-0.4813,-0.4836,-0.4838,-0.4839,-0.4851,-0.4855,-0.4857,0,0,0,0,0,0,-0.4764,-0.4767,-0.4763,-0.4781,-0.4785,-0.4788,-0.4798,-0.4793,-0.48,-0.4798,-0.4795,-0.4796,-0.4811,-0.4813,-0.4805,-0.4831,-0.4821,-0.4823,-0.4829,-0.4832,-0.4835,-0.4834,-0.4794,0,0,0,0,0,-0.4769,-0.4778,-0.478,-0.4795,-0.4798,-0.4797,-0.4802,-0.48,-0.4804,-0.4806,-0.4808,-0.4813,-0.4821,-0.4827,-0.4834,-0.4852,-0.4853,-0.486,-0.4863,-0.4865,-0.4867,-0.4876,-0.4879,-0.4845,-0.4845,-0.4845,0,0,-0.478,-0.4782,-0.4788,-0.4798,-0.4801,-0.4811,-0.4799,-0.481,-0.4816,-0.4808,-0.4821,-0.4823,-0.4828,-0.4844,-0.4851,-0.4846,-0.4876,-0.4867,-0.4868,-0.4869,-0.4877,-0.4881,-0.4884,-0.4846,-0.4845,-0.4845,0,0,-0.4804,-0.4807,-0.482,-0.4823,-0.4827,-0.4827,-0.483,-0.4833,-0.4834,-0.4847,-0.4841,-0.4848,-0.4863,-0.4866,-0.487,-0.4893,-0.4888,-0.4896,-0.4909,-0.4917,-0.492,-0.4923,-0.493,-0.4933,-0.4898,-0.4898,-0.4898,0,-0.4817,-0.483,-0.4827,-0.4837,-0.4842,-0.4834,-0.4846,-0.4849,-0.4857,-0.486,-0.4854,-0.4871,-0.4873,-0.489,-0.4895,-0.4899,-0.4902,-0.4896,-0.492,-0.4922,-0.4925,-0.4932,-0.4935,-0.4899,-0.4899,-0.4898,-0.4898,0,-0.4845,-0.4855,-0.4864,-0.4871,-0.4876,-0.4888,-0.4885,-0.4891,-0.4888,-0.4888,-0.4901,-0.4903,-0.4911,-0.4915,-0.4912,-0.493,-0.4927,-0.4921,-0.491,-0.4929,-0.4936,-0.4939,-0.49,-0.49,-0.4899,-0.4899,0,0,-0.488,-0.4883,-0.4886,-0.4889,-0.4892,-0.49,-0.491,-0.4917,-0.4922,-0.4927,-0.4935,-0.4947,-0.4941,-0.4945,-0.4942,-0.495,-0.4967,-0.4942,-0.4942,-0.4947,-0.4987,-0.4991,-0.4995,-0.4964,-0.4964,-0.4965,-0.4986,0,-0.4904,-0.4922,-0.4919,-0.4937,-0.4945,-0.4937,-0.4946,-0.4949,-0.4949,-0.4955,-0.4955,-0.4963,-0.4954,-0.4957,-0.4964,-0.4964,-0.4975,-0.4962,-0.4972,-0.4972,-0.4971,-0.4999,-0.5004,-0.5024,-0.4989,-0.4989,-0.499,0,-0.4934,-0.4939,-0.4958,-0.4959,-0.4963,-0.4971,-0.4976,-0.4983,-0.4986,-0.4985,-0.4989,-0.4985,-0.4995,-0.4984,-0.4997,-0.4988,-0.4992,-0.4992,-0.4993,-0.4994,-0.4982,-0.5,-0.5031,-0.5033,-0.4994,-0.4994,-0.4993,0,-0.4957,-0.4969,-0.4981,-0.4983,-0.4985,-0.4991,-0.4992,-0.4994,-0.4998,-0.5003,-0.5005,-0.5011,-0.5015,-0.5019,-0.5016,-0.5009,-0.503,-0.5019,-0.5029,-0.5029,-0.5034,-0.5034,-0.5066,-0.5037,-0.5037,-0.5037,-0.5037,0,-0.4984,-0.4996,-0.4991,-0.4999,-0.5011,-0.5006,-0.5019,-0.5019,-0.502,-0.5028,-0.5021,-0.5028,-0.5023,-0.503,-0.5028,-0.5039,-0.504,-0.504,-0.5039,-0.504,-0.504,-0.5043,-0.5041,-0.5037,-0.5037,-0.5037,-0.5037,0,-0.5012,-0.5009,-0.5022,-0.5022,-0.5022,-0.5031,-0.5032,-0.5038,-0.5037,-0.5046,-0.5048,-0.5046,-0.5053,-0.505,-0.5058,-0.5056,-0.507,-0.5068,-0.5069,-0.5068,-0.5079,-0.5078,-0.5113,-0.5117,-0.5085,-0.5086,-0.5086,0,-0.503,-0.5038,-0.5039,-0.5043,-0.5044,-0.5051,-0.5055,-0.505,-0.5054,-0.5057,-0.5064,-0.507,-0.5075,-0.5086,-0.5085,-0.5091,-0.5088,-0.51,-0.5089,-0.509,-0.5088,-0.5088,-0.5088,-0.5102,-0.5103,-0.5103,-0.5103,0,-0.5061,-0.5059,-0.5064,-0.5069,-0.5073,-0.5077,-0.508,-0.5084,-0.5079,-0.5084,-0.509,-0.5094,-0.5101,-0.5107,-0.5112,-0.5113,-0.5107,-0.5107,-0.5109,-0.5111,-0.5111,-0.5111,-0.5075,-0.5106,-0.5106,-0.5106,-0.5105,-0.5105,-0.5084,-0.5091,-0.5092,-0.5098,-0.5099,-0.5102,-0.5108,-0.5107,-0.5112,-0.5117,-0.5114,-0.5122,-0.5123,-0.5129,-0.513,-0.5136,-0.5132,-0.5135,-0.5136,-0.5137,-0.5139,-0.511,-0.5137,-0.5137,-0.5137,-0.5137,-0.5137,0,-0.5115,-0.5115,-0.512,-0.5124,-0.5128,-0.5122,-0.5125,-0.5129,-0.5135,-0.5137,-0.5142,-0.5149,-0.5154,-0.5153,-0.5158,-0.5163,-0.5161,-0.5165,-0.5164,-0.5164,-0.5143,-0.514,-0.5166,-0.5166,-0.5166,-0.5166,-0.5166,-0.5166,-0.5131,-0.5142,-0.514,-0.5151,-0.5151,-0.5158,-0.516,-0.5162,-0.5163,-0.5171,-0.5175,-0.5174,-0.5175,-0.518,-0.5184,-0.5184,-0.5186,-0.5191,-0.5189,-0.5169,-0.5166,-0.5163,-0.5161,-0.5191,-0.5191,-0.521,-0.5211,-0.5211]}]]